Location: Newark
(52.2090°N, 4.1550°W)
Time: 00:24:27
(UTC+00:00)

Explorer 7 - Pass Details

Date: 25 September 2019
Orbit: 485 x 680 km, 50.3° (Epoch: 19 October)

Event Time Altitude Azimuth Distance (km) Brightness Sun altitude
Rises 21:15:56 0° 223° (SW) 2,750 - -27.5°
Reaches altitude 10° 21:18:17 10° 213° (SSW) 1,890 - -27.7°
Maximum altitude 21:22:08 32° 150° (SSE) 1,045 - -28.2°
Drops below altitude 10° 21:26:14 10° 87° (E) 2,008 - -28.7°
Sets 21:28:48 0° 78° (ENE) 2,951 - -29.0°
